Wind_Speed
32 32 32 32 31 31 30 30 29 27 25 24 24 24 23 23 23 23 23 24 23 22 22 21 20 20 19 19 19 19 19 18 17 17 17 17 16 15 14 13 14 14 12 11 11 10 9 8 8 7 7 7 7 6 6 6 6 7 7 8 7 6 6 7 6 7 9 10 10 9 9 11 11 13 16 17 14 10 8 9 12 13 14 14 15
32 32 31 31 31 31 31 31 30 28 27 26 26 25 24 23 23 22 23 24 23 23 23 22 21 20 20 20 20 20 20 19 18 18 18 18 17 16 15 14 15 14 13 13 12 11 10 9 9 8 8 9 8 7 7 6 6 7 7 7 7 6 5 6 6 6 8 10 10 9 9 11 12 13 16 16 14 12 10 10 12 13 13 14 15
32 32 31 31 31 31 30 30 30 29 28 27 27 27 25 24 23 22 22 22 22 23 22 22 21 20 20 21 20 20 20 20 19 18 18 18 17 17 16 16 15 15 14 14 13 12 11 10 10 9 9 10 10 9 8 8 7 7 7 6 7 6 6 7 7 7 8 9 10 10 11 12 12 14 16 15 13 13 11 11 11 12 13 13 15
31 31 30 30 30 30 29 29 29 29 29 29 28 27 26 24 22 21 21 21 21 21 21 21 20 20 20 20 20 20 20 20 20 19 19 18 18 17 17 17 17 16 15 14 13 13 13 12 10 9 9 10 10 10 10 9 7 7 6 6 7 7 7 8 9 9 9 9 10 12 12 13 13 15 15 15 13 12 11 11 12 12 13 14 15
24 27 29 30 29 29 29 28 28 29 29 29 29 28 26 24 22 20 20 21 21 21 21 21 20 20 21 21 20 20 20 20 20 20 19 19 18 18 18 17 17 16 16 15 14 13 13 13 11 10 9 10 10 10 9 8 8 7 6 6 7 7 8 8 9 9 10 11 12 12 12 13 14 15 15 15 15 13 12 11 12 14 15 16 17
22 22 24 25 26 28 29 29 28 29 29 28 29 28 26 24 23 21 21 20 20 20 20 20 21 21 21 21 21 22 21 21 21 20 20 20 19 19 18 18 17 17 17 16 15 14 14 14 13 12 11 11 10 10 9 9 9 8 8 9 9 8 7 7 8 9 10 11 12 12 12 13 14 14 14 14 14 14 14 14 14 15 16 18 18
23 23 23 23 24 26 28 28 28 28 28 28 28 28 26 25 24 23 21 20 20 20 20 21 21 21 22 22 22 22 22 22 22 21 21 20 20 20 19 19 18 18 18 17 16 15 15 15 14 13 13 12 12 11 11 10 10 10 10 10 10 10 9 9 8 9 10 11 11 11 11 12 13 13 12 12 12 12 15 17 17 18 18 18 19
21 21 21 22 25 28 28 28 28 28 27 27 27 28 27 26 25 23 22 21 21 21 20 21 22 22 22 22 23 23 23 24 23 22 22 21 21 21 20 20 19 19 18 18 17 16 16 16 15 14 13 13 13 12 12 12 12 12 12 11 11 11 11 10 10 10 10 10 11 11 10 11 11 11 12 12 12 12 13 15 16 18 18 17 17
27 25 22 23 27 29 29 29 28 27 26 26 26 27 26 25 24 24 23 23 22 22 21 21 22 24 24 24 24 24 24 24 24 23 23 22 21 21 21 21 20 19 19 18 18 17 16 16 15 15 14 14 14 14 14 14 14 14 13 11 10 10 10 11 11 11 11 11 11 11 10 10 9 10 12 12 11 11 11 12 13 16 17 17 16
33 31 30 31 31 30 29 29 29 28 27 26 25 25 24 24 24 24 24 24 23 23 22 23 24 25 26 26 26 26 26 25 24 23 23 22 22 21 21 21 21 20 20 19 19 18 18 17 16 15 15 16 16 16 15 15 15 14 13 12 11 11 12 12 12 12 12 12 11 10 10 9 7 8 10 10 8 8 9 10 13 15 17 17 15
35 34 35 35 31 27 26 28 28 27 27 27 26 24 23 22 21 22 23 23 24 23 23 24 25 26 27 27 27 28 27 27 25 24 23 23 22 22 22 22 22 22 21 21 21 20 19 18 17 17 17 17 17 17 16 15 14 14 14 14 14 14 13 13 13 13 13 13 12 10 9 8 7 6 7 7 7 7 8 9 12 13 14 13 10
32 31 31 30 28 24 23 25 27 27 27 26 26 25 24 23 20 19 18 19 21 23 24 24 25 26 27 28 29 29 29 28 26 24 23 23 23 23 22 22 23 23 23 23 23 22 21 20 19 19 18 18 17 17 16 16 15 14 13 12 12 12 11 11 12 12 12 12 11 10 9 8 8 6 5 6 6 6 7 8 10 11 12 10 7
23 23 23 24 25 23 19 19 20 22 25 25 24 23 24 24 23 22 20 18 16 19 23 25 25 26 27 28 29 30 30 29 28 26 24 23 22 23 23 23 23 23 23 23 23 23 22 21 21 20 19 19 18 17 16 16 15 14 12 11 11 11 11 11 11 11 11 11 11 11 10 10 8 6 5 6 6 6 7 8 8 9 9 9 7
18 17 18 20 22 22 21 20 18 16 16 17 18 19 20 22 24 24 23 22 21 20 22 24 25 25 26 28 29 30 30 30 29 27 25 24 23 23 23 23 23 22 23 23 24 23 23 23 23 22 21 20 18 17 17 16 15 14 14 12 11 10 10 9 9 9 10 12 12 12 11 10 9 7 7 7 7 8 8 7 7 7 7 8 8
17 15 16 17 19 20 20 20 18 13 8 7 9 13 16 18 20 21 21 22 22 20 20 23 25 26 26 27 28 29 30 29 28 27 26 24 23 23 24 23 23 23 23 24 24 24 24 24 24 23 22 20 18 17 16 16 16 16 14 12 11 10 9 9 9 9 9 10 10 10 9 8 9 9 9 8 8 8 6 5 5 5 5 7 6
13 13 12 12 12 13 11 10 10 10 8 6 7 10 12 14 15 17 18 17 17 18 20 23 24 24 22 22 24 25 25 25 25 25 24 24 24 24 24 24 24 24 25 25 25 24 23 22 22 22 22 21 19 17 16 15 16 15 13 11 10 10 9 9 8 8 8 8 8 8 8 8 9 9 8 8 7 6 5 5 4 3 3 4 4
12 12 12 10 7 6 6 6 5 6 7 7 9 10 11 12 14 16 17 16 15 16 17 18 19 19 17 17 18 17 17 18 19 21 22 23 23 24 24 25 25 26 26 26 25 25 23 21 20 21 22 22 20 18 17 16 16 15 13 11 9 9 9 9 9 8 7 7 6 6 6 6 6 5 5 5 4 4 4 3 2 2 2 2 3
12 13 12 11 8 6 4 2 1 2 3 3 7 9 9 10 12 14 15 15 16 16 16 16 18 18 16 15 14 13 14 15 15 15 17 18 19 20 21 22 24 25 26 26 25 25 24 22 22 22 22 21 20 20 19 18 17 15 13 11 10 11 11 11 10 8 7 6 5 4 4 3 2 2 2 2 2 2 2 1 1 2 3 2 1
14 14 13 11 9 6 3 0 2 3 3 3 5 7 9 10 10 10 12 12 13 13 14 17 19 20 18 17 16 17 18 17 16 16 16 15 15 16 17 18 20 21 22 22 22 22 22 21 20 21 22 22 22 22 22 20 19 16 14 13 12 13 13 12 10 8 6 5 5 5 5 5 5 5 5 4 3 2 2 2 2 2 3 4 3
16 15 14 13 11 10 8 6 4 1 2 4 5 7 10 10 9 9 11 12 12 12 13 16 18 19 18 17 17 19 20 19 19 19 18 17 16 16 15 16 17 17 17 17 17 18 18 18 17 18 20 22 23 24 22 21 19 17 15 15 14 14 13 13 11 8 7 8 9 9 9 9 9 8 8 7 5 4 3 4 4 3 4 7 10
18 17 16 15 13 11 9 8 7 5 2 1 3 5 8 8 8 10 12 13 13 13 13 14 14 15 14 14 14 15 16 17 18 19 19 19 18 17 16 16 17 17 17 18 20 20 20 19 18 18 20 22 24 23 22 21 19 17 16 15 14 13 13 13 10 8 9 11 12 12 11 11 11 11 9 8 7 7 6 7 7 6 7 9 12
17 18 17 17 17 16 14 12 10 8 5 3 3 4 6 7 7 9 12 12 12 12 12 12 11 10 9 7 7 7 9 11 13 14 15 16 16 16 16 16 17 19 20 23 26 26 26 23 21 20 21 24 25 24 23 22 20 17 15 14 13 13 13 11 9 10 13 14 15 14 14 14 13 12 11 11 11 10 9 10 10 10 11 12 12
16 17 17 17 18 18 17 15 14 13 11 9 6 4 4 4 5 7 8 9 10 10 11 10 8 6 3 2 4 4 4 3 4 5 6 7 8 10 11 12 13 16 19 23 27 28 28 28 27 26 25 27 28 27 25 23 20 17 16 15 14 13 12 11 11 14 16 17 17 16 16 15 15 14 14 14 14 13 13 13 12 12 13 14 14
15 16 16 15 16 16 16 16 15 14 14 13 12 11 9 6 3 4 5 6 8 7 6 4 4 5 6 6 6 5 5 4 3 2 1 2 2 4 6 7 9 11 13 19 23 24 25 26 29 31 29 30 31 29 26 23 20 18 17 15 14 13 12 12 15 18 18 18 18 18 17 17 16 16 15 16 16 14 14 14 14 13 14 14 14
14 15 15 14 14 13 13 13 13 12 11 11 12 13 13 10 6 3 1 1 3 4 6 7 8 8 9 9 9 8 8 7 7 7 6 6 5 5 5 6 7 8 9 12 16 19 21 22 26 29 31 31 31 28 24 21 19 18 16 15 14 13 13 15 19 20 19 19 19 19 18 17 17 16 15 15 14 13 12 13 13 12 12 12 12
12 13 12 12 11 10 10 10 10 9 9 8 9 10 11 10 9 8 7 6 5 8 11 12 11 11 11 11 11 11 10 10 10 9 9 8 8 8 8 8 8 7 6 7 9 11 13 14 15 18 20 20 20 20 18 17 16 15 15 14 14 14 16 19 21 21 21 20 20 19 18 17 16 14 13 12 11 11 10 10 10 10 9 8 9
12 11 10 10 10 10 11 11 10 10 9 8 9 10 10 10 10 10 11 11 10 10 11 12 12 12 12 11 10 10 10 9 8 8 8 8 9 9 9 8 8 7 6 5 5 4 5 7 8 10 11 10 10 12 14 14 14 14 15 15 16 17 19 22 22 22 21 21 20 19 17 15 13 12 10 9 10 10 9 7 7 9 8 6 8
11 10 10 10 11 13 13 12 12 12 12 11 11 13 13 13 12 12 12 11 10 9 10 11 11 11 10 9 7 7 7 7 8 9 9 10 10 9 9 8 8 9 8 6 4 2 1 1 3 7 8 7 6 9 14 15 15 16 18 18 19 21 22 23 22 21 20 18 18 18 16 14 12 11 10 10 11 10 8 7 8 8 8 8 10
10 10 10 10 10 11 12 12 13 13 13 13 14 15 15 15 14 14 13 12 11 11 11 11 10 8 7 7 6 6 7 8 9 10 11 11 11 11 10 9 8 8 8 6 3 2 0 3 6 8 7 7 8 12 15 17 18 19 20 21 22 23 23 22 22 21 19 17 17 16 15 14 13 12 12 12 12 11 9 8 9 8 9 10 11
9 10 10 10 9 9 10 11 11 12 13 13 13 14 15 14 14 14 14 13 12 11 10 10 9 9 8 7 6 7 7 8 8 9 10 11 11 11 10 9 8 8 7 6 4 1 3 5 6 7 8 11 14 17 18 20 22 22 22 23 24 24 22 21 21 19 18 16 16 15 14 14 14 13 13 13 13 11 9 9 9 9 9 11 11
7 8 9 9 9 8 8 8 8 9 10 11 11 11 12 13 12 13 13 13 12 12 11 11 10 9 9 8 7 7 7 8 8 8 9 9 10 10 9 7 7 7 6 4 4 6 7 8 7 9 12 14 16 18 21 23 25 26 25 24 24 23 22 20 19 17 16 16 15 15 15 15 15 14 13 13 11 10 9 8 8 9 10 10 9
7 7 7 7 7 7 7 7 6 6 6 7 7 8 9 11 12 11 11 11 11 12 12 11 10 9 9 9 9 8 8 8 7 8 8 9 10 9 7 5 5 6 3 3 8 11 11 10 11 12 14 16 17 19 21 24 25 26 26 25 23 21 21 20 18 16 16 16 16 16 16 15 14 13 12 10 9 8 8 7 8 9 9 9 8
6 6 5 5 5 5 5 5 5 5 3 3 4 4 5 7 9 10 9 9 9 10 11 12 12 12 12 12 11 11 9 8 8 8 9 9 10 9 8 7 7 5 4 7 14 16 15 15 15 14 15 17 18 20 21 22 23 24 24 23 22 20 19 19 17 17 17 17 17 17 15 14 13 11 10 9 7 7 7 7 8 8 9 9 8
5 5 5 5 5 5 4 4 4 3 2 2 1 1 1 2 5 8 8 8 8 9 10 12 12 12 13 14 13 12 11 10 9 9 8 8 9 9 9 10 10 10 11 14 18 19 18 19 18 17 17 18 19 20 21 22 22 22 22 22 21 20 19 18 17 18 18 17 16 16 14 12 11 10 9 8 7 7 8 8 9 10 10 9 8
4 4 5 6 6 6 4 4 3 3 3 2 2 1 2 4 5 5 6 8 8 9 9 11 11 12 12 13 13 13 11 10 9 8 7 7 6 5 7 11 15 17 18 19 19 20 21 21 20 19 19 19 19 20 21 21 22 22 21 21 20 19 18 17 17 17 17 16 15 14 13 12 10 9 8 7 7 8 9 9 9 10 10 9 8
4 4 5 6 7 7 6 5 4 4 5 5 4 3 3 5 7 7 6 7 8 8 8 9 10 10 10 11 11 11 10 10 10 10 10 8 6 5 9 14 18 20 20 20 19 20 21 21 21 21 20 20 20 20 20 21 21 20 20 19 19 18 17 16 16 16 15 15 14 13 11 10 9 8 7 7 8 8 9 9 9 9 9 8 8
5 4 4 5 6 8 8 6 4 4 4 4 4 3 3 4 7 9 9 9 8 7 7 7 7 7 7 8 8 8 9 9 9 10 11 10 9 10 14 17 19 20 21 21 20 20 20 20 20 20 20 19 19 19 18 19 19 18 18 18 17 17 17 16 15 14 14 13 12 11 9 9 8 7 7 7 8 8 7 9 10 10 10 11 10
7 6 5 5 6 7 7 5 4 4 4 3 2 3 3 3 5 9 11 11 10 8 7 6 6 5 5 5 5 5 5 5 6 8 11 12 13 14 16 18 19 21 22 21 20 20 20 19 18 18 18 18 17 17 16 16 16 16 16 16 17 17 16 15 14 13 12 12 11 9 8 8 7 7 7 8 8 9 10 10 11 11 11 10 9
9 9 8 7 6 6 6 4 3 3 3 3 2 2 3 3 4 8 11 12 11 10 8 7 6 5 5 4 3 2 2 4 6 9 11 13 15 16 16 17 18 20 20 20 19 19 19 18 17 17 17 16 16 16 16 15 15 14 14 14 14 14 13 13 12 11 11 10 10 8 8 8 8 8 9 8 8 10 11 10 10 9 8 7 6
12 11 10 9 7 7 5 4 4 4 3 3 3 3 3 4 5 8 10 12 12 10 8 7 7 6 5 4 2 0 2 6 9 10 11 12 13 13 14 15 16 16 16 17 17 17 17 16 15 14 14 13 13 13 13 13 13 12 11 11 11 11 11 11 10 10 9 8 8 8 8 8 9 10 10 7 8 10 10 9 8 8 6 6 5
14 14 13 12 10 9 8 6 6 5 3 3 3 3 4 4 5 7 9 11 12 11 9 8 7 6 5 4 2 1 4 8 10 10 10 11 11 11 12 12 13 13 13 13 13 13 13 13 12 12 11 10 10 10 9 9 9 9 9 9 9 9 9 9 8 8 8 7 8 8 9 10 10 11 10 9 9 10 9 8 7 7 6 5 6
16 16 15 14 12 11 10 9 7 6 5 4 4 3 4 5 6 8 9 11 12 11 10 9 8 7 6 5 4 4 6 9 10 10 11 11 11 11 11 11 10 10 10 10 9 9 10 10 10 10 10 9 9 8 8 8 8 8 8 8 8 8 8 8 7 7 7 7 8 10 11 11 10 11 10 9 8 8 8 7 7 7 6 6 7
16 17 17 15 14 12 12 11 9 8 7 6 5 4 4 5 7 8 10 11 12 11 11 10 10 9 8 7 6 6 8 10 10 10 10 10 10 10 10 9 9 8 8 8 8 7 7 7 8 8 8 8 8 7 7 7 7 7 7 8 7 7 7 6 6 7 8 9 10 11 12 12 11 10 9 8 7 7 7 7 8 7 7 6 7
15 16 17 16 15 13 12 12 11 10 9 7 7 6 5 5 7 9 10 11 12 11 11 11 11 11 11 10 8 8 9 10 10 9 9 8 8 8 7 7 7 6 6 6 6 6 5 5 6 7 7 7 6 6 6 7 7 6 7 7 7 6 6 7 8 9 10 11 12 12 11 10 9 8 7 7 7 7 7 8 8 7 7 7 7
15 15 17 17 17 15 14 13 13 12 11 10 10 8 7 7 7 9 11 12 12 12 12 12 13 13 13 12 10 10 10 10 9 9 8 8 7 6 6 5 5 5 4 5 5 4 3 4 6 7 7 7 7 6 6 7 6 6 6 6 6 7 8 9 10 11 11 11 10 9 8 8 7 7 7 7 7 7 7 7 7 6 6 7 7
15 15 16 17 18 17 16 15 14 14 13 14 14 12 11 9 9 10 11 13 13 13 14 14 14 14 14 13 12 11 10 10 9 9 9 8 7 6 5 4 4 3 3 4 3 3 3 5 6 6 8 9 9 9 8 8 7 6 6 6 7 8 9 10 9 9 9 8 8 7 7 7 7 7 7 7 6 6 6 6 5 4 5 6 6
13 14 15 16 17 18 18 17 17 17 16 17 17 15 13 11 11 11 12 13 14 14 14 14 14 14 13 13 12 11 10 10 9 9 9 8 7 7 6 4 4 4 4 4 3 2 4 5 6 7 9 10 10 9 8 7 6 6 7 8 9 9 9 9 8 8 9 8 8 7 7 7 7 7 6 6 7 6 6 5 4 4 4 6 7
11 12 14 15 16 17 18 18 18 17 17 18 18 16 14 13 13 14 14 15 15 14 14 13 13 13 13 12 11 11 10 9 9 8 8 7 7 6 5 4 4 4 3 3 2 2 3 5 7 8 9 9 9 8 7 6 6 7 8 9 9 9 8 8 9 10 10 9 8 7 7 7 7 7 7 7 6 6 5 4 3 4 4 6 7
9 10 11 13 14 16 16 16 16 17 17 18 18 16 14 14 15 15 15 16 16 15 14 13 13 13 12 12 11 10 9 9 8 8 7 6 5 5 3 3 3 3 2 2 1 1 4 7 9 10 9 8 8 7 6 6 7 8 8 8 7 8 8 9 9 10 10 10 9 7 6 6 6 6 6 6 5 3 3 3 3 4 5 6 7
6 8 9 10 11 12 11 11 11 13 15 15 15 15 14 15 16 16 16 17 17 16 15 14 13 12 12 11 11 11 10 9 8 8 6 5 4 3 2 1 1 2 2 1 0 2 6 9 11 10 9 8 7 6 6 7 8 7 7 6 6 7 9 9 9 10 10 11 11 9 7 6 5 5 5 4 3 2 1 2 4 5 6 7 8
4 5 6 7 8 9 9 8 8 9 10 11 12 13 14 15 15 15 16 16 16 16 15 14 13 13 12 11 11 11 11 10 9 8 7 6 4 3 1 1 2 2 1 1 2 4 8 11 10 9 8 6 6 5 5 7 7 5 4 5 6 7 9 10 10 10 10 11 11 11 9 8 6 6 5 4 2 2 3 4 5 5 5 7 7
Wind_Direction
209 210 211 211 213 216 220 222 223 226 229 231 232 234 236 239 242 244 244 243 241 240 239 239 242 244 246 246 247 248 248 249 252 254 253 252 252 253 255 252 249 250 253 254 251 248 252 260 262 256 253 259 263 260 266 284 291 290 289 282 280 284 273 247 237 268 302 319 329 336 342 343 350 356 354 356 2 11 21 18 10 8 6 4 4
210 211 211 211 213 217 220 222 224 226 228 229 230 231 235 240 244 245 245 244 243 242 240 240 243 245 247 249 250 250 250 252 253 253 252 252 253 253 253 251 248 251 256 257 254 248 251 259 259 252 248 251 257 259 265 280 290 295 298 281 269 271 269 256 246 260 291 312 323 329 335 339 343 348 349 354 359 0 360 1 3 8 7 5 6
211 211 211 212 214 216 219 222 224 225 227 228 229 231 235 240 244 244 244 244 243 242 241 242 244 248 249 250 250 251 252 253 254 254 253 252 251 251 252 252 252 253 255 255 252 250 254 262 266 262 255 252 250 249 257 268 276 290 295 273 258 268 275 270 263 263 279 300 314 319 326 333 337 341 344 349 355 355 355 357 359 2 3 2 2
212 211 211 213 215 216 217 220 223 225 226 227 228 231 234 237 240 242 241 242 242 243 243 244 247 249 249 249 248 249 251 251 252 253 252 251 249 250 253 255 255 257 258 256 254 253 255 260 264 266 262 256 252 252 256 263 267 276 279 260 255 270 281 282 277 272 275 286 300 312 320 326 331 336 340 345 351 352 354 356 354 354 354 354 356
214 213 213 213 213 215 217 220 222 224 225 226 226 229 234 236 236 237 238 240 242 244 244 245 249 251 251 250 249 249 251 250 250 251 250 249 249 250 254 256 257 259 259 259 259 258 257 258 262 264 262 258 255 255 258 262 266 269 268 263 267 277 284 286 280 276 275 278 289 304 315 320 326 334 340 344 347 349 349 348 350 351 348 348 354
218 216 217 216 215 216 217 219 222 224 224 225 226 228 231 234 234 235 237 239 242 245 246 247 250 253 255 254 252 252 253 252 252 251 250 249 249 251 254 256 258 259 260 261 261 262 261 261 263 265 264 262 258 256 260 264 268 271 271 272 275 278 284 287 284 280 278 279 285 296 308 316 322 332 342 347 348 350 348 343 347 353 351 349 353
216 215 217 218 218 219 219 219 220 223 224 225 225 227 229 231 234 236 237 240 243 246 248 250 252 255 257 257 256 256 256 255 254 253 252 251 251 252 253 255 259 260 261 261 261 264 265 265 266 266 264 264 259 256 260 264 268 271 272 274 276 277 281 286 288 284 280 281 283 288 301 312 321 332 343 351 352 355 355 349 346 350 354 354 353
215 217 217 219 221 220 220 220 220 222 224 225 225 227 229 231 233 236 238 242 246 249 250 253 255 257 258 258 257 257 257 257 257 256 255 254 253 253 252 254 259 261 260 260 260 264 268 269 267 265 264 262 258 257 261 266 271 274 274 276 277 276 278 281 284 284 279 277 278 282 292 304 320 335 343 351 355 355 358 352 343 345 351 354 356
215 214 216 224 229 226 221 219 220 221 222 223 225 227 230 232 234 235 238 243 248 251 254 257 259 258 258 257 256 256 256 257 258 257 256 255 252 252 252 254 257 259 259 258 258 261 266 266 263 263 264 263 262 264 266 268 272 273 273 274 273 273 276 276 277 276 272 268 270 275 282 295 320 339 342 350 354 350 353 348 341 344 346 348 357
214 210 214 224 229 228 224 220 218 219 220 222 224 227 230 234 236 238 240 243 248 252 257 259 259 258 257 255 256 256 255 256 257 255 254 252 251 251 252 254 256 256 257 257 257 259 261 262 261 262 266 266 267 269 271 271 270 268 267 266 266 269 271 271 271 269 264 259 261 267 273 286 314 336 335 339 344 345 352 348 342 344 344 345 353
214 211 214 219 220 219 222 223 219 217 217 219 221 224 227 230 234 238 241 243 245 249 254 258 258 257 256 256 256 256 257 258 257 255 252 250 251 252 253 254 255 256 257 258 258 258 258 260 261 264 267 267 267 270 273 272 269 267 267 266 265 267 266 267 270 268 260 254 255 260 265 276 295 312 318 324 333 341 347 344 340 341 344 344 344
215 211 210 212 210 210 219 224 219 215 216 217 217 219 223 224 226 229 235 241 244 245 247 251 256 257 257 258 258 258 260 261 260 257 255 252 251 252 253 255 257 257 258 259 259 259 258 258 260 264 266 266 267 269 270 267 264 264 265 264 264 264 264 267 270 266 260 254 254 258 261 267 276 287 297 299 308 323 329 333 335 334 337 337 329
222 215 207 204 204 203 207 216 218 216 216 215 214 217 221 224 226 228 229 234 245 252 251 249 252 255 256 257 259 259 260 261 261 259 258 256 255 253 253 256 257 258 259 259 260 260 259 258 259 263 266 267 268 269 266 261 256 252 252 258 264 264 262 264 265 261 257 252 252 257 260 263 268 277 286 285 292 307 315 322 326 325 328 326 323
221 215 205 201 200 198 199 207 214 219 216 210 209 214 220 227 231 232 231 231 238 252 258 255 251 253 257 258 258 257 258 259 260 260 260 260 258 255 255 256 257 257 258 258 260 262 261 259 259 260 263 266 268 269 265 256 246 241 246 255 260 258 256 260 263 261 258 255 256 258 260 264 271 278 280 281 293 305 308 313 316 317 322 317 323
198 195 194 195 198 196 197 200 204 210 216 213 212 217 224 230 231 231 233 233 233 238 251 258 255 253 255 257 256 255 256 257 258 259 260 259 258 257 256 256 256 257 258 258 260 262 263 261 261 262 265 268 269 267 261 250 240 240 243 244 245 249 255 262 264 265 262 258 257 258 258 264 271 276 282 289 299 304 299 299 303 308 319 315 327
149 148 155 169 187 193 190 191 198 202 205 214 223 223 223 223 221 222 226 227 226 230 241 253 255 251 249 250 251 251 253 254 254 255 256 256 256 256 255 255 255 256 258 259 260 262 264 263 263 263 263 265 267 262 252 242 237 236 234 233 240 249 254 255 253 252 252 251 253 259 263 268 273 278 286 292 296 296 285 285 296 305 325 327 346
117 117 116 121 134 148 153 164 180 179 178 201 224 232 229 221 219 222 221 218 221 229 233 238 245 247 243 241 244 247 251 253 253 254 254 254 254 255 255 254 254 255 257 258 259 261 261 262 262 259 256 258 260 253 242 235 231 228 227 228 235 241 244 246 244 239 239 245 254 265 268 272 279 285 291 287 282 280 275 276 305 333 8 8 1
107 112 111 113 113 109 113 129 139 109 113 182 226 237 240 232 227 231 231 227 228 233 237 240 246 251 249 246 248 252 253 253 254 256 255 254 255 256 256 256 255 256 258 258 259 261 262 264 266 262 257 257 253 242 234 230 227 227 228 227 227 231 235 238 235 229 231 236 240 244 240 242 251 233 214 220 218 230 236 178 96 68 78 65 1
85 99 102 103 102 101 101 26 305 309 315 298 263 253 254 251 246 247 250 248 243 240 242 247 252 256 257 258 261 261 262 263 265 265 262 259 258 259 260 259 260 260 261 262 263 263 264 265 264 260 258 257 248 236 230 228 226 227 229 227 227 230 230 227 222 218 216 207 194 185 175 167 165 162 156 153 148 137 112 98 79 66 91 92 84
75 87 91 91 91 89 88 94 106 139 270 272 263 255 254 254 253 253 254 254 252 246 240 244 253 259 263 264 265 265 267 271 271 268 265 262 260 260 260 259 259 260 263 266 267 266 264 261 256 254 256 252 242 232 227 227 227 227 227 227 228 228 222 218 214 207 199 186 173 165 158 155 154 152 148 141 123 98 78 71 60 59 103 109 98
74 82 85 89 93 89 81 82 92 100 107 274 275 266 265 268 264 257 256 257 258 257 253 254 262 267 269 270 268 265 265 265 265 265 265 264 263 263 262 260 261 263 267 269 269 268 266 261 254 252 251 243 235 229 227 229 228 227 227 227 226 222 214 213 210 195 182 174 165 157 153 151 149 145 137 124 108 95 86 83 84 91 101 105 101
66 72 75 77 79 80 77 75 74 73 67 36 340 306 296 297 289 273 264 261 264 270 269 267 268 269 270 269 257 244 243 246 250 256 262 265 266 267 266 265 265 266 267 268 269 267 265 261 257 254 248 239 234 233 233 232 229 226 225 222 215 209 205 205 199 181 171 165 156 149 146 143 140 133 124 116 110 107 101 96 98 101 96 90 90
61 63 66 68 70 73 74 73 71 67 63 57 44 21 348 321 302 288 273 260 259 268 270 264 256 247 235 196 174 175 178 196 224 246 264 274 278 280 280 277 273 269 264 263 264 266 266 263 259 254 245 236 235 235 232 229 224 219 217 211 203 199 196 190 182 173 165 158 150 142 137 134 129 122 118 117 116 112 107 102 100 99 97 90 85
69 70 70 70 70 72 72 71 68 63 59 57 54 47 39 25 340 296 279 254 243 244 240 224 202 171 142 129 126 121 114 109 102 86 51 13 341 323 316 307 296 285 270 260 258 260 263 262 258 255 248 237 232 228 222 218 213 208 206 202 194 190 185 178 174 168 159 150 143 134 128 126 123 119 118 119 119 115 109 105 100 97 96 93 85
71 74 75 73 72 70 69 68 65 59 53 49 46 44 40 37 34 21 4 224 205 172 132 126 128 123 114 109 104 98 94 90 82 73 63 52 38 20 5 351 334 318 296 275 263 259 260 258 252 248 242 231 220 211 206 204 203 201 198 193 185 180 177 173 170 163 152 143 137 129 124 121 118 117 118 119 119 116 111 107 103 97 93 88 80
68 71 70 67 65 62 62 64 63 59 56 52 49 48 44 45 51 55 62 76 96 107 107 110 115 110 100 93 93 93 91 86 79 72 61 51 41 27 18 13 2 347 326 306 291 274 260 250 236 226 219 211 202 195 193 194 193 191 187 182 178 176 175 172 168 159 147 140 134 127 122 119 118 119 123 123 117 112 107 104 100 91 84 77 71
66 66 64 64 64 64 65 66 64 62 61 62 63 58 55 61 69 70 70 73 81 94 102 107 110 108 100 90 83 82 83 80 71 60 48 38 30 22 15 12 5 360 354 340 329 309 265 250 234 208 190 177 176 183 184 181 178 175 172 172 173 171 170 169 164 155 145 138 131 125 123 124 124 123 123 119 109 100 94 87 79 70 57 46 51
68 72 74 76 74 72 72 72 71 70 68 67 66 62 59 64 71 72 71 72 74 82 93 96 95 95 94 87 73 59 57 50 36 26 17 11 9 8 7 6 2 360 1 359 357 4 354 267 203 183 169 153 159 174 173 169 166 164 163 163 162 160 159 157 152 145 139 134 129 127 127 127 125 121 118 112 104 96 89 78 68 59 44 33 39
69 74 77 77 74 72 71 71 71 71 70 70 68 65 62 62 66 69 70 73 76 81 84 84 78 69 66 61 45 29 26 23 16 9 3 358 355 354 356 359 358 357 360 2 358 346 26 131 139 146 150 152 158 159 154 150 147 146 148 150 149 148 148 146 140 136 135 135 132 131 131 127 123 122 120 113 104 97 88 79 70 60 46 42 44
62 70 71 69 69 68 68 70 70 71 72 72 72 72 69 66 66 70 71 71 72 74 71 64 53 42 33 23 10 0 359 360 359 357 356 354 350 349 353 351 346 352 4 13 26 87 169 166 160 161 161 156 150 144 139 136 132 131 133 138 140 140 140 138 135 134 136 137 134 133 133 130 127 125 120 112 104 94 83 73 64 52 43 42 42
48 63 69 68 68 64 61 62 65 70 75 78 79 82 82 77 73 74 75 75 71 66 61 53 44 35 27 18 12 4 357 358 2 4 5 4 359 359 1 352 349 3 14 25 71 113 141 152 150 151 151 145 137 134 134 132 129 128 130 131 133 135 134 133 135 137 137 136 135 135 135 133 129 123 116 108 101 91 77 62 51 42 38 38 36
36 46 55 61 63 60 55 53 52 59 77 87 87 88 92 94 91 86 80 78 73 65 58 52 46 43 41 39 39 36 27 23 28 32 33 30 25 23 23 20 23 27 24 62 84 93 108 119 122 130 134 130 127 128 129 128 127 129 129 127 127 130 132 133 136 137 136 136 136 135 133 130 124 117 109 102 94 83 68 52 41 34 30 29 27
29 27 27 30 32 32 35 36 35 39 56 84 95 91 93 105 111 108 97 85 75 66 59 55 52 51 52 53 54 55 54 52 50 48 46 45 47 50 54 59 60 55 69 92 89 87 91 95 98 107 114 116 119 123 123 123 125 126 126 125 124 125 128 132 136 135 134 135 135 132 128 124 119 111 104 97 86 73 61 47 36 29 24 20 17
4 7 3 0 359 1 7 10 12 19 34 57 96 159 219 162 138 129 119 105 90 78 71 68 64 60 57 56 57 59 59 57 56 55 53 54 58 63 70 76 79 78 82 89 92 93 94 92 91 95 102 107 113 117 118 120 122 123 122 122 122 123 126 131 134 133 133 133 131 126 122 118 113 107 100 91 78 62 51 41 30 24 20 13 5
331 340 342 338 337 338 341 345 344 330 317 318 314 273 238 223 204 172 140 120 106 94 85 80 75 69 63 59 57 56 53 50 49 49 47 47 54 69 82 85 84 83 83 86 89 93 97 97 97 98 101 103 107 111 113 115 118 120 120 121 121 123 126 128 128 128 128 126 122 118 115 111 104 97 88 75 60 47 39 31 22 15 10 4 355
313 316 327 334 339 336 326 317 318 311 293 283 285 281 246 225 219 207 175 141 123 108 97 92 88 80 72 65 59 53 49 47 47 48 48 49 58 81 91 91 89 88 88 89 91 93 95 98 102 105 106 106 108 111 113 114 115 116 119 120 121 121 121 120 120 120 119 117 113 111 109 103 92 80 67 53 43 37 29 19 11 5 1 354 345
308 305 314 322 333 338 330 312 304 309 296 276 270 265 247 227 219 210 191 168 150 132 114 107 105 95 82 73 64 55 51 51 53 58 61 64 71 82 91 96 98 97 94 93 95 95 93 93 98 104 106 107 109 111 112 113 113 114 116 116 115 114 113 112 113 113 112 109 105 102 97 90 78 63 51 39 31 25 14 1 356 352 347 344 341
302 303 308 310 319 332 331 310 298 313 308 281 257 240 229 221 212 201 190 179 169 161 150 142 138 126 108 96 83 65 52 47 53 63 69 71 75 81 88 94 98 100 100 100 100 98 95 93 95 98 101 104 107 109 110 111 112 114 116 116 114 112 111 110 108 107 105 100 96 90 81 71 59 42 30 21 12 4 355 348 345 342 339 340 339
298 300 305 306 308 320 320 293 277 300 304 286 261 233 222 216 200 191 186 181 175 170 164 157 151 146 141 135 121 67 41 58 69 75 79 81 83 86 89 89 90 93 97 100 102 102 100 99 98 99 101 103 107 109 111 112 113 115 116 117 116 113 111 107 103 99 95 90 84 75 61 48 35 22 14 6 353 346 342 338 336 334 331 331 332
295 298 301 301 299 303 303 281 265 274 284 274 266 248 231 221 208 193 186 180 173 166 161 154 145 139 142 152 165 161 95 101 99 95 93 91 90 90 90 88 87 87 87 90 93 96 98 100 101 101 102 104 107 110 112 114 115 116 117 117 116 111 107 104 99 94 87 77 66 53 37 24 12 4 1 350 334 332 333 332 332 334 332 330 331
286 289 293 297 296 296 293 281 267 261 255 247 247 241 233 227 214 199 187 178 169 160 153 146 136 128 129 139 150 139 120 119 117 112 107 103 100 98 95 93 91 89 85 82 80 82 86 89 91 93 96 99 102 107 111 114 117 119 118 115 112 106 100 94 89 81 70 55 39 25 15 7 357 351 346 337 328 331 336 338 341 345 345 344 347
284 281 282 286 290 292 291 286 276 260 244 231 224 222 226 223 211 198 186 176 167 159 151 141 131 123 121 126 132 136 130 126 124 120 116 113 111 108 105 103 100 96 93 87 80 75 74 76 78 82 87 92 96 101 108 113 118 119 116 111 105 99 91 81 70 58 42 27 15 3 356 351 345 341 340 339 337 343 350 355 357 357 355 354 359
290 282 277 276 279 284 286 284 279 267 249 233 223 220 218 209 201 195 185 173 166 162 155 146 139 134 131 133 138 138 132 129 128 126 122 120 118 116 114 112 108 103 98 93 85 78 74 76 81 84 85 86 87 90 97 105 110 112 111 106 98 89 78 62 43 26 11 1 354 347 342 340 339 340 345 350 353 358 3 2 1 1 357 351 354
299 291 282 275 273 274 275 274 273 268 254 237 229 224 215 203 199 194 185 175 168 165 159 154 150 148 147 148 150 145 137 133 132 129 126 125 124 121 119 118 115 110 106 99 93 87 85 92 101 102 98 94 92 92 99 106 106 102 99 94 84 71 54 32 14 2 352 345 339 334 333 335 340 346 355 0 2 3 4 1 358 356 353 349 350
300 297 290 281 275 271 268 265 264 260 247 231 224 222 217 212 207 197 188 182 176 169 162 157 155 154 154 154 154 150 144 140 138 135 132 131 129 126 125 125 121 117 114 111 111 113 121 131 133 130 126 125 124 122 122 121 112 100 89 79 65 47 29 11 358 349 341 336 332 332 334 341 350 356 359 1 359 355 353 355 355 352 349 349 348
295 293 290 285 280 276 271 266 261 253 240 228 224 221 216 213 211 204 196 190 182 172 164 160 158 158 158 158 157 155 151 148 144 140 136 134 132 132 130 125 117 112 109 113 125 147 163 164 161 153 148 146 142 138 134 125 112 96 79 59 42 26 13 2 355 351 348 345 345 346 348 353 357 359 356 351 347 344 347 351 355 356 352 347 343
290 289 286 283 280 279 276 272 265 254 240 228 222 216 210 209 210 208 202 195 187 178 170 166 164 163 162 161 160 158 156 153 149 143 140 137 135 133 130 121 112 106 99 100 116 152 177 183 180 169 158 151 144 136 128 116 96 75 55 37 26 20 17 14 11 9 6 2 358 356 355 355 355 353 349 346 345 347 351 353 352 354 351 343 338
291 291 288 284 280 278 277 274 267 255 242 228 218 212 208 208 207 203 198 195 190 184 177 173 171 169 166 164 163 162 159 158 156 151 146 143 139 137 134 124 112 104 94 93 109 151 189 193 185 173 160 151 140 128 115 97 75 55 40 32 28 29 30 28 22 16 10 4 359 355 351 350 348 345 345 349 351 355 1 4 357 350 343 335 332
296 300 299 294 287 283 280 274 262 252 242 231 219 210 206 203 198 193 191 191 190 187 184 181 177 174 170 168 167 167 166 167 166 162 159 155 150 143 133 120 103 87 73 78 96 179 200 189 176 164 154 145 132 116 97 77 59 44 38 40 45 46 39 31 24 19 15 12 9 2 352 348 347 343 344 351 354 357 15 19 358 339 334 333 331
309 309 309 303 291 282 278 270 257 248 242 231 217 206 201 196 192 189 187 186 184 184 186 185 183 181 180 178 176 175 176 176 176 176 174 172 168 160 144 111 39 14 15 36 149 201 191 178 165 155 147 137 120 102 82 63 47 40 42 53 57 49 38 29 23 20 19 18 19 20 16 10 2 354 352 354 348 334 350 347 326 314 319 328 330
315 301 298 293 282 270 266 262 256 250 244 232 217 208 201 196 192 190 188 186 185 186 186 186 184 183 183 182 180 179 178 178 179 181 182 185 188 196 220 294 328 339 34 119 152 182 180 169 156 145 136 122 104 86 65 47 38 41 55 59 46 34 26 20 18 18 18 18 21 23 23 18 8 355 347 342 324 302 310 314 307 303 314 324 324
Height
814 816 818 820 822 824 826 828 830 832 833 835 836 838 839 841 842 843 844 845 846 847 848 849 850 851 852 853 853 854 855 856 857 857 858 858 859 859 859 859 859 859 860 860 859 859 859 859 859 859 859 859 859 859 859 859 859 858 858 858 857 857 857 857 857 856 856 856 855 855 854 853 852 852 850 849 848 848 847 846 845 844 843 842 841
812 814 816 818 820 822 824 826 828 830 831 833 834 836 838 839 840 841 842 844 845 846 847 848 849 850 850 851 852 853 853 854 855 855 856 857 857 858 858 858 858 858 858 858 858 858 858 857 857 857 858 858 858 858 858 857 857 857 857 856 856 856 856 856 856 855 855 854 854 854 853 853 852 851 850 849 848 847 846 845 844 843 843 841 840
810 812 814 816 818 820 822 824 826 828 829 831 832 833 835 837 838 839 840 842 843 844 846 847 848 848 849 850 850 851 852 852 853 854 854 855 855 856 856 857 857 857 857 856 857 857 857 856 856 856 856 856 856 856 856 856 856 855 855 855 855 855 855 855 855 854 854 853 853 853 852 852 851 850 849 849 848 847 846 845 844 843 842 841 840
809 810 812 814 816 818 820 822 824 825 827 828 830 832 833 835 836 837 839 840 841 843 844 845 846 847 847 848 848 849 850 850 851 852 852 853 854 854 855 855 855 855 855 855 855 855 855 855 855 855 855 855 855 854 854 854 854 854 854 853 854 854 854 854 854 853 853 853 852 852 851 851 851 850 849 848 847 846 845 844 843 843 842 841 839
809 810 811 812 813 816 818 820 822 823 824 826 827 830 831 833 834 835 837 838 839 841 842 843 844 845 845 846 847 847 848 849 849 850 850 851 852 852 853 853 854 854 854 854 854 854 854 854 854 854 854 853 853 853 853 853 853 852 852 852 852 852 852 852 852 852 852 852 851 851 851 850 850 849 848 847 846 845 845 844 843 842 841 840 839
809 809 811 812 813 814 816 817 819 821 823 824 826 828 829 831 832 833 835 836 838 839 840 841 842 843 844 844 845 846 846 847 847 848 849 849 850 851 851 851 852 852 852 853 853 853 853 853 853 853 853 852 852 852 852 852 852 851 851 851 851 851 851 851 851 851 851 851 850 850 850 849 849 848 848 847 845 844 843 843 842 841 840 839 838
806 807 809 811 812 813 814 815 817 819 821 822 824 825 827 829 830 831 833 834 836 837 838 839 841 841 842 843 843 844 844 845 846 846 847 847 848 849 849 849 850 850 851 851 851 851 851 851 851 851 851 851 850 850 850 850 850 850 850 850 850 850 850 850 850 849 849 849 849 849 848 848 848 847 847 846 845 844 843 841 840 840 840 839 838
805 807 808 809 810 810 811 813 814 816 818 820 822 824 825 826 828 830 831 832 834 835 836 837 838 839 840 841 841 842 843 843 844 844 845 845 846 846 847 847 848 848 848 849 849 850 850 850 850 850 849 849 849 849 849 849 849 849 849 849 848 848 848 848 848 848 848 848 848 847 847 847 847 846 846 845 844 844 843 842 840 839 839 838 837
801 803 805 808 809 808 808 810 812 813 815 817 819 821 823 825 826 828 829 830 832 833 834 835 836 837 838 839 839 840 841 841 842 842 843 843 844 844 845 845 846 846 846 847 847 847 848 848 848 848 848 848 848 847 847 847 847 847 847 847 847 847 847 847 846 846 846 846 846 846 846 846 846 845 845 844 843 843 842 842 840 839 838 837 837
796 797 799 801 804 806 807 807 809 811 812 814 816 819 821 823 825 826 827 828 829 831 832 833 833 834 835 836 837 838 838 839 839 840 841 841 842 842 842 843 843 844 844 844 845 845 845 846 846 846 846 846 846 846 846 846 845 845 845 845 845 845 845 845 845 844 844 844 844 844 845 845 845 844 844 843 843 842 841 840 839 838 837 836 835
791 793 795 795 798 802 806 807 807 808 809 811 813 815 818 820 822 823 824 825 827 828 829 830 830 831 832 833 834 835 835 836 837 838 838 839 839 840 840 841 841 841 842 842 842 843 843 843 844 844 844 844 844 844 844 844 844 844 844 844 844 844 843 843 843 843 843 842 842 843 843 843 843 843 842 842 841 841 840 840 838 837 836 835 834
790 790 792 794 795 798 804 807 807 806 807 808 810 812 814 816 818 820 821 823 824 825 826 827 828 829 829 830 831 831 832 833 834 835 836 836 837 838 838 838 839 839 839 839 840 840 840 841 841 841 841 842 842 842 842 842 842 842 842 842 842 842 842 842 842 841 841 841 841 841 841 841 841 841 840 840 839 839 839 839 838 837 836 835 834
792 791 792 793 793 794 799 805 807 806 805 806 807 810 811 813 815 816 817 819 821 823 824 825 825 827 827 827 828 829 829 830 831 833 833 834 835 835 835 836 836 836 837 837 838 838 838 838 838 839 839 839 840 840 840 840 840 841 841 841 841 841 840 840 840 840 840 840 840 840 839 839 839 839 839 838 838 838 838 838 837 836 836 835 834
791 792 793 793 793 792 795 800 805 807 806 805 806 807 809 811 812 813 814 815 817 819 822 823 823 824 824 825 825 826 827 828 829 830 831 832 832 833 833 833 833 834 834 834 835 835 835 836 836 836 837 837 838 838 838 838 838 839 839 839 839 839 839 839 838 838 838 838 838 838 838 838 838 838 837 837 837 837 837 837 836 835 835 835 834
789 791 792 793 794 793 794 796 801 805 806 807 807 807 807 808 810 811 811 811 812 815 819 821 821 821 821 822 822 823 824 825 827 828 829 829 830 831 831 831 831 831 831 831 832 832 833 833 833 834 835 835 836 836 836 836 836 837 837 837 837 837 837 837 837 837 837 837 836 837 837 837 837 836 836 836 836 836 836 836 835 835 834 834 833
788 790 791 793 795 796 796 799 802 803 804 807 810 810 808 808 809 810 809 810 811 812 814 817 819 819 818 818 820 821 822 823 824 825 826 827 827 828 828 828 828 828 828 828 829 829 830 830 831 832 833 833 833 833 834 834 834 835 835 835 835 835 836 836 836 836 836 835 835 835 836 836 835 835 835 835 835 835 835 835 834 834 834 833 832
789 790 791 794 796 797 798 801 804 803 802 805 810 811 809 808 809 809 808 809 811 811 812 815 819 819 816 817 818 819 821 822 823 823 823 824 824 824 825 825 825 825 825 825 826 826 827 828 828 829 829 830 830 831 831 832 832 833 833 833 833 834 834 834 834 835 835 835 834 835 835 835 834 835 835 834 834 834 834 834 834 833 833 832 832
791 791 792 793 796 799 800 801 803 803 802 804 808 809 809 809 809 808 808 808 809 811 812 814 817 818 816 816 817 818 819 820 821 821 821 821 821 822 822 822 822 822 822 823 823 823 824 825 825 826 826 826 827 828 828 829 830 831 831 831 832 832 832 832 833 833 834 834 834 834 834 834 834 834 834 834 833 833 833 833 833 833 832 832 831
793 793 794 795 797 799 800 801 802 802 803 805 808 809 809 809 809 808 808 808 809 811 812 813 815 815 815 816 816 816 817 818 819 819 819 819 819 819 820 820 820 820 820 820 820 820 820 821 822 823 823 824 825 825 825 826 826 828 828 829 829 829 830 831 831 832 832 833 833 833 833 833 834 833 833 833 833 833 833 833 832 832 832 832 831
797 797 797 797 799 801 803 803 803 804 805 807 808 809 808 808 808 808 808 809 809 810 811 812 813 814 814 814 814 814 815 816 816 817 817 817 817 817 817 818 817 817 817 817 817 817 817 818 818 819 821 823 823 823 822 823 824 825 826 826 827 827 828 829 830 830 831 831 832 832 832 833 833 833 833 833 833 833 833 833 832 832 831 831 831
801 801 801 801 802 803 804 805 805 805 807 808 808 809 808 807 807 807 808 808 808 809 809 810 811 811 811 811 812 813 813 814 814 814 814 815 815 815 815 816 816 816 815 814 814 813 814 814 815 816 817 819 821 820 820 820 821 822 822 823 824 825 826 827 828 829 830 830 831 831 832 832 833 833 833 833 833 833 833 833 833 832 832 832 831
805 804 804 804 804 804 805 805 806 807 808 809 809 809 808 807 807 808 808 808 808 808 808 808 809 809 809 810 811 811 812 812 812 812 812 812 812 812 813 813 814 814 813 812 810 810 810 811 812 813 814 816 817 818 818 818 818 819 820 820 821 822 824 826 827 828 829 829 830 830 831 832 832 832 833 833 833 833 833 833 833 833 833 833 833
808 807 806 806 806 807 807 808 808 809 810 810 811 810 810 809 808 808 808 808 808 808 808 808 808 809 809 810 811 811 811 811 811 811 811 811 811 811 811 811 811 811 811 809 808 808 808 808 808 809 810 811 812 813 815 815 815 817 818 818 818 820 822 824 826 827 828 829 829 830 831 831 832 832 833 833 833 833 834 834 834 834 834 834 834
811 810 810 810 810 810 811 811 811 812 812 812 812 812 811 810 809 809 809 808 808 808 808 809 809 809 810 811 811 811 811 811 811 811 811 811 811 810 809 809 808 808 808 807 807 806 805 805 805 805 806 808 808 809 810 811 813 814 816 816 816 818 820 822 825 826 827 828 829 830 831 832 832 833 833 834 834 834 834 835 835 835 835 835 835
814 814 814 814 814 813 813 813 813 813 813 813 813 812 812 812 811 811 810 809 809 809 810 810 810 810 811 811 811 812 812 812 812 812 811 811 810 809 809 808 807 807 806 805 805 804 803 802 802 802 803 804 804 805 807 808 810 812 813 814 815 817 819 822 824 825 827 828 829 830 832 832 833 834 834 835 835 836 836 836 836 836 836 835 835
816 816 816 816 816 816 816 815 815 815 815 815 814 813 813 812 812 812 811 811 811 811 811 811 811 811 812 812 813 812 812 812 812 812 812 811 810 809 809 808 807 806 805 804 803 802 801 801 800 800 801 802 803 803 804 806 808 810 811 812 814 816 818 821 824 825 826 828 829 830 832 833 834 835 835 836 836 837 837 837 837 837 837 836 836
819 819 819 818 818 818 818 818 818 817 817 816 816 815 814 813 812 812 812 812 813 813 812 812 812 812 812 813 814 814 813 813 813 812 812 811 810 810 809 808 807 806 805 804 803 801 801 800 800 800 801 802 803 802 802 804 807 809 810 812 813 816 818 821 823 824 825 827 828 829 832 833 834 835 836 836 837 837 838 838 838 838 837 837 836
822 821 821 821 821 820 820 820 819 819 819 818 817 817 816 815 815 814 814 814 815 815 815 815 814 814 814 814 814 814 813 813 812 812 811 811 810 810 809 808 807 805 804 803 802 802 801 800 800 800 802 803 803 803 803 805 807 809 810 811 813 816 818 821 822 824 826 828 829 830 833 834 835 836 836 837 837 838 838 838 838 838 838 838 837
823 823 823 822 822 822 822 821 821 820 820 819 819 819 818 818 818 817 817 817 817 817 818 817 817 817 816 815 815 815 814 812 812 812 811 811 810 810 809 808 806 805 804 803 803 802 802 801 801 801 802 804 805 806 806 806 807 809 811 812 814 817 819 821 823 825 827 829 830 831 833 834 835 836 837 837 838 839 839 839 839 839 839 838 838
825 824 824 824 824 823 823 823 822 822 821 821 821 821 820 821 820 820 820 820 820 820 820 819 819 818 818 817 817 816 814 813 813 812 812 811 811 810 809 808 807 806 805 804 803 803 803 803 804 804 805 806 807 808 808 808 808 810 812 814 816 818 821 822 824 825 827 829 830 832 833 835 836 837 837 838 839 839 839 839 839 839 839 839 838
825 825 825 825 825 825 825 824 824 823 823 823 822 822 822 822 822 822 822 822 822 822 821 821 820 820 819 818 817 817 816 815 814 813 812 811 811 810 809 808 807 806 805 804 804 804 804 805 806 806 807 808 809 809 809 809 810 811 813 816 818 820 822 823 825 826 828 829 831 832 834 835 836 837 838 838 839 839 840 840 840 840 839 839 838
826 826 826 826 826 826 826 825 825 825 825 824 824 824 823 824 824 824 824 824 824 824 823 822 822 821 820 819 818 817 817 816 815 814 813 812 811 810 810 809 808 807 806 805 805 805 806 806 807 808 808 809 810 811 811 811 812 813 815 817 819 821 822 824 825 827 828 830 832 833 835 836 837 837 838 838 839 840 840 840 840 839 839 839 838
826 826 827 827 827 827 827 826 826 826 826 826 825 825 825 825 825 825 825 825 825 825 824 823 823 822 821 820 819 819 818 817 817 816 815 814 813 812 811 810 809 809 808 806 806 807 808 809 809 810 810 811 812 813 813 814 815 816 817 819 820 822 824 825 827 828 830 831 833 834 835 836 837 837 838 839 839 840 840 840 840 839 839 838 838
827 827 827 827 827 827 827 827 827 827 826 826 826 826 826 826 825 825 826 826 826 826 825 825 824 824 823 822 822 821 821 820 819 818 817 816 815 813 812 811 810 810 809 808 808 809 810 811 812 813 813 814 814 815 815 816 818 819 820 821 823 825 826 828 829 830 831 832 833 834 835 836 837 837 838 839 840 840 840 840 840 839 838 838 837
828 828 828 828 828 827 827 827 827 827 827 826 826 826 826 826 826 826 826 826 827 827 826 826 826 825 825 824 824 824 823 822 822 821 819 818 816 815 813 812 812 812 811 812 812 813 813 813 814 815 816 817 817 818 818 819 820 822 823 824 826 827 829 830 831 832 832 833 834 835 836 836 837 838 839 840 840 840 840 840 840 839 838 838 837
828 828 828 828 827 827 827 827 827 827 827 826 826 826 825 825 826 826 826 827 827 827 827 827 827 827 826 826 826 825 825 824 823 822 821 819 818 816 815 814 814 814 814 815 816 816 816 816 816 817 818 819 820 821 822 822 823 825 826 827 828 829 831 832 833 833 834 834 835 836 836 837 838 839 840 840 841 841 841 840 840 839 838 837 836
828 827 827 827 827 827 826 826 826 826 826 826 826 826 825 825 825 825 826 827 827 827 828 828 828 828 827 827 827 827 826 826 825 824 823 822 820 819 817 816 816 816 817 818 819 819 820 820 820 820 820 821 823 824 825 825 826 828 829 830 831 832 833 834 835 835 836 836 836 837 838 838 839 840 840 840 841 841 840 840 839 838 837 836 835
827 827 827 827 826 826 826 825 825 826 825 825 826 825 825 825 825 825 826 827 827 828 828 828 828 828 828 828 828 828 827 827 826 825 825 824 823 822 822 821 820 819 819 820 821 822 822 823 823 824 824 825 826 827 828 828 829 830 832 832 833 834 835 836 836 837 837 838 838 839 839 839 840 840 840 841 840 840 839 839 838 837 836 835 834
826 826 826 826 826 826 826 825 825 825 825 825 825 825 825 825 825 826 826 827 827 828 828 828 829 829 829 829 829 828 828 828 827 827 826 826 826 826 826 826 826 825 824 823 823 823 824 825 826 827 827 828 828 829 830 831 832 833 834 834 835 836 836 837 838 839 839 839 840 840 840 840 840 841 841 841 840 839 839 838 837 836 835 834 833
824 825 825 825 825 826 825 825 825 825 825 825 825 825 825 825 825 825 826 827 827 828 829 829 829 829 829 829 829 829 829 829 828 828 828 828 828 829 829 829 829 830 830 829 828 827 827 828 828 829 830 831 831 831 832 832 833 834 835 836 837 837 838 839 839 840 840 841 841 841 841 841 841 841 840 840 839 838 837 837 836 835 834 834 833
823 823 824 824 824 824 825 825 825 825 825 825 825 824 825 825 825 825 826 826 827 828 828 829 829 829 829 830 829 829 830 829 829 830 830 830 830 831 831 831 832 832 832 833 832 831 831 831 831 831 832 832 833 833 834 834 835 836 837 837 838 839 839 840 841 841 841 841 841 841 841 841 840 840 840 839 838 837 836 835 835 834 833 833 831
821 822 822 823 823 823 823 824 824 824 825 825 825 825 825 825 825 825 826 826 827 827 828 829 829 829 829 830 830 830 830 830 830 831 831 831 832 832 832 833 833 834 834 834 834 834 834 834 834 834 834 835 835 835 835 836 836 837 838 838 839 840 840 841 841 841 841 841 841 841 841 840 840 839 838 837 836 835 834 834 833 833 832 832 831
820 820 821 821 821 822 822 822 823 823 824 824 824 824 824 824 825 825 826 827 827 828 828 828 829 829 830 830 830 830 830 830 831 831 832 832 833 833 834 834 835 835 835 835 835 835 835 835 835 836 837 837 837 837 837 837 837 837 838 839 839 840 841 841 841 841 841 841 840 840 840 839 838 838 837 836 834 834 833 833 833 833 832 831 831
818 818 819 819 820 820 821 821 822 822 823 823 824 824 824 824 824 825 826 827 828 828 828 829 829 829 830 830 831 831 831 831 832 832 833 833 834 834 834 835 835 835 836 836 836 836 836 836 836 837 837 838 838 839 839 839 839 839 839 839 839 840 840 840 840 840 840 840 839 839 838 838 837 836 835 834 833 833 833 833 833 832 832 831 830
817 817 817 817 818 818 819 819 820 821 821 822 822 823 823 823 823 824 825 826 827 827 828 829 829 830 830 831 831 832 832 832 832 833 833 834 834 834 835 835 835 836 836 836 837 837 837 837 838 838 838 838 839 839 839 839 839 839 839 839 839 839 840 840 840 839 839 838 838 837 837 836 836 835 834 833 833 833 833 833 832 832 831 830 830
816 815 815 816 816 816 817 818 818 819 819 820 820 821 821 822 822 823 824 824 825 826 827 828 829 830 831 831 832 832 832 833 833 833 833 834 834 835 835 835 836 836 836 837 837 837 838 838 838 838 839 839 839 839 840 840 840 840 840 839 839 839 839 839 839 838 838 837 837 836 836 835 834 834 834 833 833 833 832 832 832 831 830 830 830
814 814 814 814 814 814 815 816 816 817 817 818 818 819 820 820 821 822 822 823 824 825 826 827 828 829 830 831 832 832 833 833 833 834 834 834 834 835 835 836 836 837 837 837 838 838 838 839 839 839 839 839 840 840 840 840 840 840 840 840 839 839 839 838 838 837 837 836 836 835 835 834 834 834 833 833 833 832 832 831 831 831 830 830 830
812 812 813 813 813 813 813 814 814 815 815 816 816 818 818 819 820 820 821 822 824 824 825 826 827 828 829 830 831 832 833 833 834 834 834 834 835 835 836 836 836 837 837 838 838 838 839 839 839 839 839 840 840 840 840 840 840 840 840 840 839 839 839 838 838 837 836 836 835 835 834 834 834 833 833 832 832 831 831 831 831 831 831 831 831
811 811 811 811 811 811 811 812 812 813 813 814 815 815 816 818 819 819 820 821 822 824 825 826 827 828 829 830 831 831 832 833 834 834 835 835 835 835 836 836 836 837 837 837 838 838 838 838 839 839 840 840 840 841 841 841 841 841 840 840 840 839 839 839 838 837 837 836 835 835 834 834 833 833 832 832 832 832 832 832 831 831 831 831 831
810 810 810 810 810 810 810 811 811 812 812 813 814 814 815 817 818 818 819 820 821 823 824 825 826 827 828 829 830 831 832 833 834 834 835 835 835 836 836 836 836 836 837 837 837 837 838 838 838 839 840 840 841 841 841 841 841 841 841 841 840 840 840 839 839 838 837 836 836 835 834 834 834 833 833 833 832 832 832 832 832 832 831 830 829
809 809 809 809 809 809 809 810 810 811 812 813 813 814 815 816 817 818 819 820 821 822 823 825 826 827 828 828 830 831 832 833 834 834 835 835 836 836 836 836 836 836 837 837 837 837 838 838 839 840 840 840 841 841 841 841 841 841 841 841 841 840 840 839 839 838 837 837 836 835 835 834 834 833 833 833 832 832 832 832 832 831 830 829 828